Weather History for Palma De Mallorca / Son San Juan, Spain

Change the Weather History Date:

Sunday, February 17, 2013

  Actual Average Record
Temperature  
Mean Temperature 48 °F -  
Max Temperature 58 °F 60 °F - ()
Min Temperature 39 °F 40 °F - ()
Degree Days  
Heating Degree Days 16    
Moisture  
Dew Point 46 °F    
Average Humidity 85    
Maximum Humidity 100    
Minimum Humidity 57    
Precipitation  
Precipitation 0.00 in 0.05 in - ()
Sea Level Pressure  
Sea Level Pressure 30.01 in    
Wind  
Wind Speed 2 mph ()    
Max Wind Speed 9 mph    
Max Gust Speed -    
Visibility 6.7 miles    
Events      
T = Trace of Precipitation, MM = Missing Value Source: Averaged Metar Reports

Daily Weather History Graph

Daily Weather History Graph

Search for Another Location

Airport:

Trip Planner

Search our weather history database for the weather conditions in past years. The results will help you decide how hot, cold, wet, or windy it might be!

Date:

Astronomy

Feb. 17, 2013 Rise Set
Actual Time 7:38 AM CET 6:27 PM CET
Civil Twilight 7:11 AM CET 6:55 PM CET
Nautical Twilight 6:39 AM CET 7:26 PM CET
Astronomical Twilight 6:08 AM CET 7:58 PM CET
Moon 11:22 AM CET (2/17) 1:07 AM CET (2/17)
Length of Visible Light 11h 44m
Length of Day
10h 49m
Waxing Crescent, 46% of the Moon is Illuminated
Feb 17
Waxing Crescent
Feb 17
First Quarter
Feb 25
Full
Mar 4
Last Quarter
Mar 11
New

Hourly Weather History & Observations

Time (CET) Temp. Dew Point Humidity Pressure Visibility Wind Dir Wind Speed Gust Speed Precip Events Conditions
12:00 AM 46.4 °F 44.6 °F 93% 30.09 in 6.2 mi NNE 1.2 mph - N/A   Partly Cloudy
12:30 AM 46.4 °F 44.6 °F 93% 30.09 in 6.2 mi Calm Calm - N/A   Partly Cloudy
1:00 AM 44 °F 41 °F 83% 30.11 in 9 mi Calm Calm - -   Scattered Clouds
1:00 AM 44.6 °F 42.8 °F 93% 30.09 in 6.2 mi NNE 1.2 mph - N/A   Partly Cloudy
1:30 AM 46.4 °F 44.6 °F 93% 30.09 in 6.2 mi Calm Calm - N/A   Partly Cloudy
2:00 AM 44.6 °F 42.8 °F 93% 30.09 in 6.2 mi ENE 2.3 mph - N/A   Partly Cloudy
2:30 AM 44.6 °F 42.8 °F 93% 30.09 in 6.2 mi Calm Calm - N/A   Partly Cloudy
3:00 AM 42.8 °F 41.0 °F 93% 30.06 in 6.2 mi NNE 1.2 mph - N/A   Partly Cloudy
3:30 AM 44.6 °F 42.8 °F 93% 30.06 in 6.2 mi Calm Calm - N/A   Partly Cloudy
4:00 AM 44.6 °F 42.8 °F 93% 30.06 in 6.2 mi Calm Calm - N/A   Partly Cloudy
4:30 AM 42.8 °F 41.0 °F 93% 30.04 in 6.2 mi Calm Calm - N/A   Partly Cloudy
5:00 AM 42.8 °F 41.0 °F 93% 30.04 in 6.2 mi NE 1.2 mph - N/A   Partly Cloudy
5:30 AM 41.0 °F 39.2 °F 93% 30.04 in 6.2 mi NE 2.3 mph - N/A   Partly Cloudy
6:00 AM 41.0 °F 41.0 °F 100% 30.04 in 6.2 mi Calm Calm - N/A   Partly Cloudy
6:30 AM 42.8 °F 41.0 °F 93% 30.04 in 6.2 mi Calm Calm - N/A   Partly Cloudy
7:00 AM 40 °F 38 °F 91% 30.05 in 12 mi Calm Calm - -   Scattered Clouds
7:00 AM 41.0 °F 41.0 °F 100% 30.04 in 6.2 mi Variable 1.2 mph - N/A   Partly Cloudy
7:30 AM 42.8 °F 41.0 °F 93% 30.04 in 6.2 mi Variable 1.2 mph - N/A   Scattered Clouds
8:00 AM 44.6 °F 42.8 °F 93% 30.04 in 6.2 mi North 1.2 mph - N/A   Mostly Cloudy
8:30 AM 44.6 °F 44.6 °F 100% 30.04 in 6.2 mi Variable 1.2 mph - N/A   Mostly Cloudy
9:00 AM 46.4 °F 44.6 °F 93% 30.04 in 6.2 mi Variable 1.2 mph - N/A   Mostly Cloudy
9:30 AM 50.0 °F 48.2 °F 94% 30.04 in 6.2 mi Calm Calm - N/A   Mostly Cloudy
10:00 AM 51.8 °F 50.0 °F 94% 30.04 in 6.2 mi Calm Calm - N/A   Mostly Cloudy
10:30 AM 53.6 °F 50.0 °F 88% 30.04 in 6.2 mi Calm Calm - N/A   Mostly Cloudy
11:00 AM 55.4 °F 50.0 °F 82% 30.04 in 6.2 mi Calm Calm - N/A   Mostly Cloudy
11:30 AM 59.0 °F 50.0 °F 72% 30.04 in 6.2 mi SSW 3.5 mph - N/A   Mostly Cloudy
12:00 PM 57.2 °F 50.0 °F 77% 30.04 in 6.2 mi SW 4.6 mph - N/A   Overcast
12:30 PM 57.2 °F 50.0 °F 77% 30.01 in 6.2 mi SW 9.2 mph - N/A   Overcast
1:00 PM 56 °F 45 °F 57% 30.01 in 16 mi SSW 8.1 mph - -   Overcast
1:00 PM 57.2 °F 48.2 °F 72% 30.01 in 6.2 mi SW 8.1 mph - N/A   Overcast
1:30 PM 57.2 °F 48.2 °F 72% 29.98 in 6.2 mi SW 5.8 mph - N/A   Overcast
2:00 PM 57.2 °F 48.2 °F 72% 29.98 in 6.2 mi SW 5.8 mph - N/A   Overcast
2:30 PM 57.2 °F 50.0 °F 77% 29.98 in 6.2 mi SSW 4.6 mph - N/A   Overcast
3:00 PM 57.2 °F 50.0 °F 77% 29.95 in 6.2 mi SW 6.9 mph - N/A   Overcast
3:30 PM 57.2 °F 50.0 °F 77% 29.95 in 6.2 mi SW 4.6 mph - N/A   Overcast
4:00 PM 57.2 °F 50.0 °F 77% 29.95 in 6.2 mi SW 6.9 mph - N/A   Mostly Cloudy
4:30 PM 57.2 °F 50.0 °F 77% 29.95 in 6.2 mi SW 6.9 mph - N/A   Mostly Cloudy
5:00 PM 57.2 °F 50.0 °F 77% 29.95 in 6.2 mi SW 6.9 mph - N/A   Mostly Cloudy
5:30 PM 57.2 °F 50.0 °F 77% 29.95 in 6.2 mi SW 6.9 mph - N/A   Mostly Cloudy
6:00 PM 57.2 °F 50.0 °F 77% 29.95 in 6.2 mi SW 6.9 mph - N/A   Mostly Cloudy
6:30 PM 57.2 °F 50.0 °F 77% 29.95 in 6.2 mi SSW 4.6 mph - N/A   Mostly Cloudy
7:00 PM 55 °F 47 °F 66% 29.96 in 12 mi South 6.9 mph - -   Partly Cloudy
7:00 PM 57.2 °F 50.0 °F 77% 29.95 in 6.2 mi South 3.5 mph - N/A   Mostly Cloudy
7:30 PM 55.4 °F 50.0 °F 82% 29.95 in 6.2 mi SSE 2.3 mph - N/A   Mostly Cloudy
8:00 PM 55.4 °F 50.0 °F 82% 29.95 in 6.2 mi South 1.2 mph - N/A   Mostly Cloudy
8:30 PM 55.4 °F 50.0 °F 82% 29.95 in 6.2 mi SSE 1.2 mph - N/A   Mostly Cloudy
9:00 PM 53.6 °F 50.0 °F 88% 29.95 in 6.2 mi SSE 1.2 mph - N/A   Mostly Cloudy
9:30 PM 51.8 °F 48.2 °F 88% 29.95 in 6.2 mi Calm Calm - N/A   Mostly Cloudy
10:00 PM 51.8 °F 48.2 °F 88% 29.95 in 6.2 mi NE 1.2 mph - N/A   Mostly Cloudy
10:30 PM 51.8 °F 48.2 °F 88% 29.95 in 6.2 mi Calm Calm - N/A   Scattered Clouds
11:00 PM 51.8 °F 50.0 °F 94% 29.95 in 6.2 mi Calm Calm - N/A   Mostly Cloudy
11:30 PM 51.8 °F 50.0 °F 94% 29.95 in 6.2 mi Calm Calm - N/A   Mostly Cloudy